Weather History for Charlotte, NC

Change the Weather History Date:

Saturday, December 1, 2012

  Actual Average Record
Temperature  
Mean Temperature 51 °F 46 °F  
Max Temperature 66 °F 57 °F 76 °F (1946)
Min Temperature 35 °F 35 °F 15 °F (1964)
Degree Days  
Heating Degree Days 14 19  
Month to date heating degree days 14 19  
Since 1 July heating degree days 700 655  
Cooling Degree Days 0 0  
Month to date cooling degree days 0 0  
Year to date cooling degree days 1790 1517  
Moisture  
Dew Point 43 °F    
Average Humidity 74    
Maximum Humidity 100    
Minimum Humidity 48    
Precipitation  
Precipitation 0.00 in 0.11 in 1.21 in (1880)
Month to date precipitation 0.00 0.11  
Year to date precipitation 29.85 38.49  
Snow  
Snow 0.00 in 0.00 in T in (1974)
Month to date snowfall 0.0 0.0  
Since 1 July snowfall 0.0 0.1  
Snow Depth 0.00 in    
Sea Level Pressure  
Sea Level Pressure 30.35 in    
Wind  
Wind Speed 3 mph (SSW)    
Max Wind Speed 10 mph    
Max Gust Speed 12 mph    
Visibility 9 miles    
Events Fog    
T = Trace of Precipitation, MM = Missing Value Source: NWS Daily Summary

Daily Weather History Graph

Daily Weather History Graph

Search for Another Location

Airport:

Trip Planner

Search our weather history database for the weather conditions in past years. The results will help you decide how hot, cold, wet, or windy it might be!

Date:

Astronomy

Dec. 01, 2012 Rise Set
Actual Time 7:14 AM EST 5:11 PM EST
Civil Twilight 6:46 AM EST 5:39 PM EST
Nautical Twilight 6:15 AM EST 6:10 PM EST
Astronomical Twilight 5:44 AM EST 6:41 PM EST
Moon 7:58 PM EST (12/1) 9:27 AM EST (12/1)
Length of Visible Light 10h 52m
Length of Day
9h 57m
Waning Gibbous, 92% of the Moon is Illuminated
Dec 1
Waning Gibbous
Dec 6
Last Quarter
Dec 13
New
Dec 20
First Quarter
Dec 28
Full

Hourly Weather History & Observations

Time (EST) Temp. Windchill Dew Point Humidity Pressure Visibility Wind Dir Wind Speed Gust Speed Precip Events Conditions
12:52 AM 45.0 °F - 42.1 °F 90% 30.31 in 8.0 mi Calm Calm - N/A   Clear
1:52 AM 45.0 °F 42.6 °F 43.0 °F 93% 30.32 in 10.0 mi NNW 4.6 mph - N/A   Clear
2:52 AM 44.1 °F 42.5 °F 43.0 °F 96% 30.32 in 10.0 mi NNW 3.5 mph - N/A   Clear
3:31 AM 39.2 °F - 39.2 °F 100% 30.33 in 10.0 mi Calm Calm - N/A   Partly Cloudy
3:42 AM 41.0 °F - 39.2 °F 93% 30.32 in 10.0 mi Calm Calm - N/A Fog Patches of Fog
3:52 AM 42.1 °F - 39.9 °F 92% 30.32 in 10.0 mi Calm Calm - N/A Fog Patches of Fog
3:59 AM 41.0 °F - 39.2 °F 93% 30.32 in 0.2 mi Calm Calm - N/A Fog Patches of Fog
4:10 AM 39.2 °F - 39.2 °F 100% 30.32 in 10.0 mi Calm Calm - N/A Fog Patches of Fog
4:52 AM 39.0 °F - 37.9 °F 96% 30.32 in 8.0 mi Calm Calm - N/A Fog Patches of Fog
5:52 AM 39.9 °F - 37.9 °F 93% 30.34 in 8.0 mi Calm Calm - N/A Fog Patches of Fog
6:52 AM 37.9 °F 33.5 °F 37.9 °F 100% 30.37 in 10.0 mi North 5.8 mph - N/A Fog Patches of Fog
7:52 AM 39.9 °F - 39.9 °F 100% 30.39 in 10.0 mi Calm Calm - N/A Fog Patches of Fog
8:52 AM 48.9 °F - 45.0 °F 86% 30.40 in 7.0 mi Calm Calm - N/A Fog Patches of Fog
9:52 AM 51.1 °F - 45.0 °F 80% 30.41 in 8.0 mi Calm Calm - N/A Fog Patches of Fog
10:52 AM 59.0 °F - 45.0 °F 60% 30.41 in 8.0 mi Calm Calm - N/A   Scattered Clouds
11:52 AM 62.1 °F - 46.9 °F 58% 30.38 in 10.0 mi SW 5.8 mph - N/A   Partly Cloudy
12:52 PM 64.0 °F - 48.0 °F 56% 30.35 in 10.0 mi Variable 5.8 mph - N/A   Scattered Clouds
1:52 PM 66.0 °F - 46.0 °F 48% 30.33 in 10.0 mi Variable 4.6 mph - N/A   Mostly Cloudy
2:52 PM 66.0 °F - 46.0 °F 48% 30.32 in 10.0 mi SW 6.9 mph - N/A   Mostly Cloudy
3:52 PM 64.9 °F - 46.0 °F 50% 30.33 in 10.0 mi SSW 4.6 mph - N/A   Scattered Clouds
4:52 PM 61.0 °F - 45.0 °F 56% 30.33 in 10.0 mi South 5.8 mph - N/A   Scattered Clouds
5:52 PM 55.9 °F - 44.1 °F 64% 30.33 in 10.0 mi South 5.8 mph - N/A   Partly Cloudy
6:52 PM 57.0 °F - 45.0 °F 64% 30.35 in 10.0 mi Calm Calm - N/A   Partly Cloudy
7:52 PM 52.0 °F - 43.0 °F 71% 30.35 in 10.0 mi SE 3.5 mph - N/A   Partly Cloudy
8:52 PM 52.0 °F - 43.0 °F 71% 30.35 in 10.0 mi SSE 4.6 mph - N/A   Clear
9:52 PM 50.0 °F - 44.1 °F 80% 30.36 in 10.0 mi SE 3.5 mph - N/A   Clear
10:52 PM 51.1 °F - 44.1 °F 77% 30.35 in 10.0 mi South 4.6 mph - N/A   Mostly Cloudy
11:52 PM 48.9 °F - 43.0 °F 80% 30.35 in 10.0 mi Calm Calm - N/A   Overcast